BGGH

Godthaab / Nuuk Airport

Nuuk, Greenland
Issued Wind Visibility Ceiling Temperature Dew Point Humidity Barometer
Sep-25
06:50 UTC
360°
8 KTS
  Broken
12,000' AGL
-1° C
30° F
-4° C
25° F
80% 29.38" Hg
995 hPa
Sep-25
05:50 UTC
010°
10 KTS
  Broken
11,000' AGL
C
32° F
-4° C
25° F
75% 29.38" Hg
995 hPa
Sep-25
04:50 UTC
030°
8 KTS
  Broken
12,000' AGL
C
32° F
-4° C
25° F
75% 29.38" Hg
995 hPa
Sep-25
03:50 UTC
020°
10 KTS
  Broken
13,000' AGL
-1° C
30° F
-3° C
27° F
86% 29.38" Hg
995 hPa
Sep-25
02:50 UTC
030°
10 KTS
  Broken
13,000' AGL
C
32° F
-3° C
27° F
80% 29.35" Hg
994 hPa
Sep-25
01:50 UTC
040°
8 KTS
    C
32° F
-3° C
27° F
80% 29.35" Hg
994 hPa
Sep-25
00:50 UTC
050°
5 KTS
    C
32° F
-2° C
28° F
87% 29.35" Hg
994 hPa
Sep-24
23:50 UTC
020°
7 KTS
  Broken
3,200' AGL
C
32° F
-2° C
28° F
87% 29.35" Hg
994 hPa
Sep-24
22:50 UTC
340°
4 KTS
  Broken
2,900' AGL
C
34° F
-1° C
30° F
87% 29.35" Hg
994 hPa
Sep-24
21:50 UTC
020°
1 KTS
  Overcast
2,100' AGL
C
34° F
-2° C
28° F
81% 29.35" Hg
994 hPa
Sep-24
20:50 UTC
050°
3 KTS
  Overcast
2,000' AGL
C
34° F
-1° C
30° F
87% 29.35" Hg
994 hPa
Sep-24
19:50 UTC
Varies @1 KTS 10,000+ meters Broken
2,600' AGL
C
36° F
-2° C
28° F
75% 29.35" Hg
994 hPa
MVFR
Sep-24
18:50 UTC
330°
2 KTS
10,000+ meters Broken
2,600' AGL
C
36° F
-3° C
27° F
70% 29.35" Hg
994 hPa
MVFR
Sep-24
17:50 UTC
10,000+ meters Broken
2,600' AGL
C
37° F
-3° C
27° F
65% 29.35" Hg
994 hPa
MVFR
Sep-24
16:50 UTC
100°
1 KTS
10,000+ meters Broken
2,800' AGL
C
39° F
-3° C
27° F
61% 29.35" Hg
994 hPa
MVFR
Sep-24
15:50 UTC
030°
2 KTS
10,000+ meters   C
43° F
-2° C
28° F
57% 29.35" Hg
994 hPa
VFR
Sep-24
14:50 UTC
060°
3 KTS
10,000+ meters Broken
3,000' AGL
C
45° F
-2° C
28° F
53% 29.35" Hg
994 hPa
MVFR
Sep-24
13:50 UTC
Varies @1 KTS 10,000+ meters Broken
3,200' AGL
C
39° F
-2° C
28° F
65% 29.38" Hg
995 hPa
VFR
Sep-24
12:50 UTC
030°
2 KTS
10,000+ meters Broken
3,200' AGL
C
37° F
-3° C
27° F
65% 29.38" Hg
995 hPa
VFR
Sep-24
11:50 UTC
060°
2 KTS
10,000+ meters Broken
3,200' AGL
C
36° F
-3° C
27° F
70% 29.41" Hg
996 hPa
VFR
Sep-24
10:50 UTC
050°
3 KTS
  Broken
2,600' AGL
C
32° F
-2° C
28° F
87% 29.41" Hg
996 hPa
Sep-24
09:50 UTC
060°
3 KTS
  Broken
3,200' AGL
-1° C
30° F
-3° C
27° F
86% 29.44" Hg
997 hPa
Sep-24
08:50 UTC
080°
4 KTS
  Broken
3,200' AGL
-1° C
30° F
-2° C
28° F
93% 29.44" Hg
997 hPa
Sep-24
07:50 UTC
060°
5 KTS
  Broken
2,900' AGL
-1° C
30° F
-2° C
28° F
93% 29.44" Hg
997 hPa